Radiation Dose measured at exhaust stack monitor of Fukushima Daiichi Nuclear Power Station
Date,Time,Unit 5 6 shared exhaust cylinders,Wind Direction,Wind Velocity(m/s)
2023/09/16,00:00,3.5,-,CALM
2023/09/16,00:10,3.8,-,CALM
2023/09/16,00:20,3.7,-,CALM
2023/09/16,00:30,3.7,west-southwest,0.9
2023/09/16,00:40,3.7,west,0.9
2023/09/16,00:50,3.6,northwest,1.2
2023/09/16,01:00,3.7,west-northwest,0.6
2023/09/16,01:10,3.7,west-northwest,0.6
2023/09/16,01:20,3.6,west-northwest,1.1
2023/09/16,01:30,3.7,west,0.6
2023/09/16,01:40,3.6,-,CALM
2023/09/16,01:50,3.6,-,CALM
2023/09/16,02:00,3.6,-,CALM
2023/09/16,02:10,3.7,-,CALM
2023/09/16,02:20,3.7,-,CALM
2023/09/16,02:30,3.5,northwest,1.1
2023/09/16,02:40,3.4,northwest,1.9
2023/09/16,02:50,3.6,northwest,2.3
2023/09/16,03:00,3.8,northwest,2.3
2023/09/16,03:10,3.6,northwest,2.3
2023/09/16,03:20,3.5,north-northwest,1.5
2023/09/16,03:30,3.7,north-northwest,0.9
2023/09/16,03:40,3.6,north-northwest,2.3
2023/09/16,03:50,3.6,north,2.2
2023/09/16,04:00,3.7,north,2.5
2023/09/16,04:10,3.5,north-northeast,1.7
2023/09/16,04:20,3.6,north,1.9
2023/09/16,04:30,3.6,north-northeast,1.5
2023/09/16,04:40,3.6,north,1.7
2023/09/16,04:50,3.7,north-northwest,3.7
2023/09/16,05:00,3.4,north-northwest,3.8
2023/09/16,05:10,3.5,north-northwest,3.4
2023/09/16,05:20,3.8,north-northwest,3.4
2023/09/16,05:30,3.5,northwest,3.0
2023/09/16,05:40,3.5,north-northwest,2.6
2023/09/16,05:50,3.6,northwest,2.6
2023/09/16,06:00,3.6,northwest,1.5
2023/09/16,06:10,3.5,northwest,1.7
2023/09/16,06:20,3.6,northwest,1.2
2023/09/16,06:30,3.7,northwest,1.7
2023/09/16,06:40,3.6,north-northwest,2.0
2023/09/16,06:50,3.5,northwest,1.5
2023/09/16,07:00,3.6,northwest,1.9
2023/09/16,07:10,3.7,north-northwest,1.7
2023/09/16,07:20,3.7,north-northwest,1.5
2023/09/16,07:30,3.5,northwest,1.4
2023/09/16,07:40,3.6,north-northwest,1.7
2023/09/16,07:50,3.8,northwest,1.7
2023/09/16,08:00,3.6,northwest,1.2
2023/09/16,08:10,3.7,north-northwest,1.5
2023/09/16,08:20,3.6,-,CALM
2023/09/16,08:30,3.7,east,1.9
2023/09/16,08:40,3.5,northeast,1.1
2023/09/16,08:50,3.6,north,2.0
2023/09/16,09:00,3.6,east,1.7
2023/09/16,09:10,3.6,east-northeast,0.9
2023/09/16,09:20,3.7,northeast,2.0
2023/09/16,09:30,3.5,northeast,1.7
2023/09/16,09:40,3.7,east,2.6
2023/09/16,09:50,3.6,east-southeast,2.0
2023/09/16,10:00,3.7,east,1.5
2023/09/16,10:10,3.6,east-southeast,1.5
2023/09/16,10:20,3.7,east,1.5
2023/09/16,10:30,3.6,east-northeast,2.0
2023/09/16,10:40,3.7,east-northeast,2.2
2023/09/16,10:50,3.5,east-northeast,2.0
2023/09/16,11:00,3.7,east,2.0
2023/09/16,11:10,3.7,east-southeast,2.6
2023/09/16,11:20,3.5,southeast,2.6
2023/09/16,11:30,3.5,east-southeast,1.9
2023/09/16,11:40,3.6,east,1.7
2023/09/16,11:50,3.6,east-southeast,2.6
2023/09/16,12:00,3.8,southeast,3.0
2023/09/16,12:10,3.6,east-southeast,1.7
2023/09/16,12:20,3.7,southeast,3.2
2023/09/16,12:30,3.7,east-southeast,2.3
2023/09/16,12:40,3.7,east-southeast,2.8
2023/09/16,12:50,3.6,east-southeast,3.0
2023/09/16,13:00,3.7,east-southeast,2.6
2023/09/16,13:10,3.7,southeast,3.4
2023/09/16,13:20,3.7,east-southeast,3.2
2023/09/16,13:30,3.7,southeast,3.1
2023/09/16,13:40,3.5,east-southeast,2.6
2023/09/16,13:50,3.7,southeast,3.1
2023/09/16,14:00,3.6,east-southeast,2.6
2023/09/16,14:10,3.6,east-southeast,2.3
2023/09/16,14:20,3.5,southeast,3.3
2023/09/16,14:30,3.6,southeast,2.5
2023/09/16,14:40,3.6,south-southeast,3.0
2023/09/16,14:50,3.6,south,2.8
2023/09/16,15:00,3.6,south,3.4
2023/09/16,15:10,3.7,south-southeast,3.3
2023/09/16,15:20,3.9,south-southeast,3.2
2023/09/16,15:30,3.6,southeast,3.8
2023/09/16,15:40,3.5,southeast,4.0
2023/09/16,15:50,3.5,southeast,3.1
2023/09/16,16:00,3.7,southeast,3.2
2023/09/16,16:10,3.6,south-southeast,2.5
2023/09/16,16:20,3.7,south-southeast,3.7
2023/09/16,16:30,3.6,south-southeast,2.8
2023/09/16,16:40,3.4,south,2.3
2023/09/16,16:50,3.6,east-southeast,1.5
2023/09/16,17:00,3.6,southeast,2.3
2023/09/16,17:10,3.5,south-southeast,2.6
2023/09/16,17:20,3.6,south,3.7
2023/09/16,17:30,3.7,south,2.2
2023/09/16,17:40,3.6,south,2.3
2023/09/16,17:50,3.6,south,2.5
2023/09/16,18:00,3.7,south,1.2
2023/09/16,18:10,3.7,south-southwest,1.2
2023/09/16,18:20,3.6,south-southwest,1.2
2023/09/16,18:30,3.6,south-southwest,1.1
2023/09/16,18:40,3.8,west,0.6
2023/09/16,18:50,3.5,northwest,1.1
2023/09/16,19:00,3.7,north-northwest,1.2
2023/09/16,19:10,3.5,north,1.4
2023/09/16,19:20,3.6,west-northwest,0.6
2023/09/16,19:30,3.7,west,1.2
2023/09/16,19:40,3.5,northwest,0.9
2023/09/16,19:50,3.5,-,CALM
2023/09/16,20:00,3.7,northwest,1.4
2023/09/16,20:10,3.5,northwest,0.9
2023/09/16,20:20,3.6,east-northeast,0.9
2023/09/16,20:30,3.7,-,CALM
2023/09/16,20:40,3.5,east,0.9
2023/09/16,20:50,3.6,north,1.1
2023/09/16,21:00,3.6,-,CALM
2023/09/16,21:10,3.7,east-southeast,0.8
2023/09/16,21:20,3.7,north-northeast,0.8
2023/09/16,21:30,3.7,south-southeast,1.4
2023/09/16,21:40,3.7,south-southeast,0.9
2023/09/16,21:50,3.8,-,CALM
2023/09/16,22:00,3.8,north,0.6
2023/09/16,22:10,3.7,-,CALM
2023/09/16,22:20,3.8,south-southwest,1.2
2023/09/16,22:30,3.4,south-southwest,0.8
2023/09/16,22:40,3.6,-,CALM
2023/09/16,22:50,3.4,west-northwest,0.9
2023/09/16,23:00,3.8,northwest,0.6
2023/09/16,23:10,3.5,north,1.2
2023/09/16,23:20,3.7,north,1.5
2023/09/16,23:30,3.5,north-northwest,2.3
2023/09/16,23:40,3.5,north-northwest,2.2
2023/09/16,23:50,3.7,north-northwest,2.8
